Regional Weather Roundup
Issued by NWS

Home | Current Version | Previous Version | Text Only | Print | Product List | Glossary Off
Versions: 1 2 3 4 5 6 7 8 9 10 11 12 13 14 15 16 17 18 19 20 21 22 23 24 25 26 27 28 29 30 31 32 33 34 35 36 37 38 39 40 41 42 43 44 45 46 47 48 49 50

000
ASUS43 KOAX 221610
RWRNE

WEATHER ROUNDUP FOR NEBRASKA
NATIONAL WEATHER SERVICE OMAHA NE
1100 AM CDT WED OCT 22 2014

NOTES: SATELLITE DATA IS BEING USED TO AUGMENT CLOUD COVER ABOVE
       12000 FEET.
       "FAIR" INDICATES FEW OR NO CLOUDS BELOW 12,000 FEET WITH NO
       SIGNIFICANT WEATHER AND/OR OBSTRUCTIONS TO VISIBILITY.

  * THESE STATIONS DO NOT REPORT WEATHER SUCH AS RAIN...SNOW OR FOG.

NEZ001>004-019>022-054>056-221700-
NEBRASKA PANHANDLE

CITY           SKY/WX    TMP DP  RH WIND       PRES   REMARKS
SCOTTSBLUFF    MOSUNNY   55  40  56 W8        30.08R
ALLIANCE       SUNNY     55  38  52 NW13      30.05R
CHADRON        PTSUNNY   55  37  50 NW15      30.04R
KIMBALL        MOSUNNY   57  37  47 NW17      30.08S
SIDNEY         SUNNY     59  40  49 NW16      30.08S
$$

NEZ057>060-069>072-079>082-221700-
SOUTHWEST NEBRASKA

CITY           SKY/WX    TMP DP  RH WIND       PRES   REMARKS
IMPERIAL       CLOUDY    61  50  67 N6        30.03R
LEXINGTON      CLOUDY    62  53  73 S5        30.02R
MCCOOK         CLOUDY    62  50  64 S7        30.01R
OGALLALA       PTSUNNY   60  55  82 W6        30.03R
$$

NEZ005>010-023>029-035>040-094-221700-
NORTH CENTRAL NEBRASKA

CITY           SKY/WX    TMP DP  RH WIND       PRES   REMARKS
VALENTINE      LGT RAIN  51  47  86 N8        29.99F FOG
AINSWORTH      DRIZZLE   55  49  82 NW8       29.99R
BROKEN BOW     PTSUNNY   64  53  67 SW8       29.99R
O`NEILL        CLOUDY    65  56  74 S13G18    29.97S
ORD            PTSUNNY   62  54  74 S15       29.99R
THEDFORD       CLOUDY    59  53  82 N5        29.98F
$$

NEZ041-046>049-061>064-073>077-083>087-221700-
SOUTH CENTRAL NEBRASKA

CITY           SKY/WX    TMP DP  RH WIND       PRES   REMARKS
GRAND ISLAND   PTSUNNY   67  55  65 S17G25    30.01S
AURORA         MOSUNNY   66  54  63 S15G21    30.02F
HASTINGS       PTSUNNY   66  53  63 S13       30.02S
HEBRON         SUNNY     68  53  58 S12G20    30.06S
HOLDREGE       CLOUDY    62  53  72 S14G20    30.02R
KEARNEY *      CLOUDY    63  54  72 S12       30.03R
YORK           SUNNY     66  54  63 S16       30.04F
$$

NEZ011>018-030>034-042>045-221700-
NORTHEAST NEBRASKA

CITY           SKY/WX    TMP DP  RH WIND       PRES   REMARKS
NORFOLK        MOSUNNY   65  50  58 S18G25    30.00F
ALBION         PTSUNNY   65  53  65 S16G22    30.00R
BLAIR          SUNNY     63  47  56 SE17      30.08F
COLUMBUS *     MOSUNNY   64  48  55 S15       30.04S
FREMONT        SUNNY     64  49  57 SE16G23   30.06F
TEKAMAH        SUNNY     66  48  52 SE21      30.06F
WAYNE          SUNNY     63  48  59 S16G22    30.03S
$$

NEZ050>053-065>068-078-088>093-221700-
SOUTHEAST NEBRASKA

CITY           SKY/WX    TMP DP  RH WIND       PRES   REMARKS
LINCOLN        SUNNY     67  51  56 S15       30.08S
OMAHA EPPLEY   MOSUNNY   63  46  54 S18       30.10F
BEATRICE       SUNNY     66  53  61 SE9       30.09S
FALLS CITY     SUNNY     64  50  60 SE13G22   30.14S
NEBRASKA CITY  SUNNY     63  45  51 S13G22    30.12F
PLATTSMOUTH    SUNNY     62  45  54 SE14G23   30.11S
$$

NEZ044-045-051>053-067-221700-
OMAHA AREA

CITY           SKY/WX    TMP DP  RH WIND       PRES   REMARKS
OMAHA EPPLEY   MOSUNNY   63  46  54 S18       30.10F
BLAIR          SUNNY     63  47  56 SE17      30.08F
FREMONT        SUNNY     64  49  57 SE16G23   30.06F
MILLARD        SUNNY     62  49  62 SE16      30.09F
OFFUTT AFB     SUNNY     63  50  61 SE15      30.10F
PLATTSMOUTH    SUNNY     62  45  54 SE14G23   30.11S
WAHOO          FAIR      65  48  54 S18       30.07F
$$



USA.gov is the U.S. government's official web portal to all federal, state and local government web resources and services.